Capitol Reef National Park, UT

2:13 PM MDT on October 31, 2014 (GMT -0600)
MesoWest SR-24 @ Wayne Summit UT US UTAH DOT | Change Station
CLOSE
Current Station
Personal Weather Station
Location: Koosharem, UT
Elevation: 8377 ft
Nearby Weather Stations

Elev 8377 ft 38.45 °N, 111.83 °W | Updated 43 minutes ago

Clear
Clear
61 °F
Feels Like 61 °F
N
17
Wind Variable Wind from SSE
Gusts 29.0 mph

Today
High -- | Low -- °F
--% Chance of Precip.
Yesterday
High -- | Low -- °F
Precip. -- in
7:51 AM 6:28 PM
First Quarter, 58% visible
Pressure 30.04 in
Visibility 10.0 miles
Clouds Clear
Dew Point 25 °F
Humidity 25%
Rainfall -999.00 in
Snow Depth Not available.
UV 5 out of 12
Pollen .90 out of 12
Air Quality Not available.
Flu Activity Not available.
METAR KBCE 311853Z AUTO 13013KT 10SM CLR 13/M06 A3022 RMK AO2 SLP170 T01331056 TSNO

More Conditions Fewer Conditions

Pressure 30.04 in
Visibility 10.0 miles
Clouds Clear
Dew Point 25 °F
Humidity 25%
Rainfall -999.00 in
Snow Depth Not available.
UV 5 out of 12
Pollen .90 out of 12
Air Quality Not available.
Flu Activity Not available.
METAR KBCE 311853Z AUTO 13013KT 10SM CLR 13/M06 A3022 RMK AO2 SLP170 T01331056 TSNO

More Conditions Fewer Conditions

10-Day Weather Forecast

Almanac

Astronomy

Oct. 31, 2014 Rise Set
Actual Time
Civil Twilight
Nautical Twilight
Astronomical Twilight
Moon
Length of Visible Light
Length of Day
Tomorrow will be .
, % of the Moon is Illuminated

Today's Extremes

State Highs State Lows

Community

WunderPhotos

Upload Photos

1,766,717 photos uploaded!

WunderBlogs® & News

Nearby

Air Quality

  Air Quality AQ Index Pollutant
Not available.

Snow Depth

Station Depth Elevation

Earthquake Activity

City Distance Mag. Time & Date
Minimum magnitude displayed is 2.5.

Coastal Water Temperatures

Place Temperature

Nearby Weather Stations